TimeCDT,TemperatureF,Dew PointF,Humidity,Sea Level PressureIn,VisibilityMPH,Wind Direction,Wind SpeedMPH,Gust SpeedMPH,PrecipitationIn,Events,Conditions,WindDirDegrees,DateUTC
12:55 AM,39.9,17.1,40,29.96,10.0,SSE,8.1,-,N/A,,Clear,150,2012-10-13 05:55:00
1:55 AM,37.9,17.1,43,29.93,10.0,SSE,8.1,-,N/A,,Clear,150,2012-10-13 06:55:00
2:55 AM,36.0,18.0,48,29.89,10.0,SSE,6.9,-,N/A,,Clear,150,2012-10-13 07:55:00
3:55 AM,33.1,19.0,56,29.86,10.0,SSE,5.8,-,N/A,,Clear,150,2012-10-13 08:55:00
4:55 AM,33.1,19.9,59,29.83,10.0,SE,5.8,-,N/A,,Clear,140,2012-10-13 09:55:00
5:55 AM,33.1,21.0,61,29.81,10.0,SE,5.8,-,N/A,,Clear,140,2012-10-13 10:55:00
6:55 AM,30.9,21.0,67,29.80,10.0,SE,5.8,-,N/A,,Clear,130,2012-10-13 11:55:00
7:55 AM,33.1,23.0,66,29.80,10.0,SE,6.9,-,N/A,,Clear,140,2012-10-13 12:55:00
8:55 AM,41.0,27.0,57,29.78,10.0,SSE,6.9,-,N/A,,Clear,150,2012-10-13 13:55:00
9:55 AM,46.9,28.9,50,29.78,10.0,South,5.8,-,N/A,,Clear,180,2012-10-13 14:55:00
10:55 AM,48.0,30.9,52,29.77,10.0,South,4.6,-,N/A,,Scattered Clouds,170,2012-10-13 15:55:00
11:55 AM,50.0,33.1,52,29.75,10.0,South,5.8,-,N/A,,Overcast,170,2012-10-13 16:55:00
12:55 PM,52.0,36.0,54,29.74,10.0,SSE,3.5,-,N/A,,Overcast,150,2012-10-13 17:55:00
1:55 PM,54.0,37.0,53,29.72,10.0,SSE,4.6,-,N/A,,Overcast,150,2012-10-13 18:55:00
2:55 PM,55.0,36.0,49,29.71,10.0,NE,4.6,-,N/A,,Partly Cloudy,50,2012-10-13 19:55:00
3:55 PM,54.0,36.0,51,29.73,10.0,NE,8.1,-,N/A,,Clear,40,2012-10-13 20:55:00
4:55 PM,54.0,37.0,53,29.73,10.0,NE,6.9,-,N/A,,Clear,50,2012-10-13 21:55:00
5:55 PM,52.0,37.0,57,29.75,10.0,East,4.6,-,N/A,,Clear,80,2012-10-13 22:55:00
6:55 PM,44.1,36.0,73,29.78,10.0,East,4.6,-,N/A,,Clear,90,2012-10-13 23:55:00
7:55 PM,41.0,36.0,82,29.80,10.0,ESE,4.6,-,N/A,,Clear,110,2012-10-14 00:55:00
8:55 PM,33.8,30.2,87,29.77,10.0,Calm,Calm,-,N/A,,Clear,0,2012-10-14 01:55:00
9:55 PM,32.0,30.0,92,29.83,10.0,Calm,Calm,-,N/A,,Clear,0,2012-10-14 02:55:00
10:55 PM,30.0,28.9,96,29.85,5.0,Calm,Calm,-,N/A,,Clear,0,2012-10-14 03:55:00
11:55 PM,30.0,28.9,96,29.86,7.0,Calm,Calm,-,N/A,,Clear,0,2012-10-14 04:55:00